Temperature
20 21 21 22 22 20 20 19 20 20 20 20 19 19 20 20 21 21 22 22 22 23 23 22 22 22 22 22 22 22 22 21 21 20 20 20 19 19 19 19 18 18 18 18
21 21 21 22 21 21 21 20 20 20 20 19 19 19 19 19 20 20 21 21 22 22 22 22 22 22 22 22 22 22 22 21 21 21 20 20 19 19 19 19 18 18 18 18
19 20 22 21 21 20 20 20 20 20 19 18 18 18 19 19 20 20 21 21 21 22 22 22 22 22 22 22 22 21 21 21 21 20 20 19 19 19 19 18 18 18 18 17
17 20 21 20 20 20 19 19 18 18 18 18 18 19 20 20 20 20 21 21 21 22 22 22 21 21 21 21 21 21 21 21 20 20 20 19 19 19 19 18 18 18 17 17
16 18 19 20 20 19 19 19 18 18 18 18 19 19 19 19 20 20 21 21 21 21 22 21 21 21 21 21 21 20 20 20 20 20 20 19 19 19 19 18 18 17 17 17
16 18 19 19 19 19 19 18 18 18 17 18 18 18 18 19 20 20 20 20 21 21 21 21 21 21 20 20 20 20 20 19 19 19 19 19 19 19 18 18 18 17 17 17
16 17 18 18 18 19 19 19 18 18 18 18 17 18 19 19 19 20 20 20 20 20 20 20 20 20 20 19 19 19 19 19 19 19 18 18 18 18 18 17 17 17 16 16
14 17 17 17 17 17 17 17 17 18 18 18 18 18 18 19 19 19 19 19 19 19 20 19 19 19 19 19 19 18 18 18 18 18 18 18 18 17 17 17 17 17 16 16
14 15 15 16 16 17 17 17 17 17 18 18 18 17 18 18 18 18 19 19 18 18 18 18 19 19 19 19 18 18 18 18 18 18 17 17 17 17 17 16 16 16 16 16
13 14 15 16 16 17 17 17 17 18 18 18 18 17 17 18 18 18 18 18 18 18 18 18 18 18 18 18 18 17 17 17 18 17 17 17 17 17 16 16 16 16 16 16
13 14 15 16 16 16 17 17 17 17 17 18 17 17 17 17 17 17 17 17 17 17 17 17 17 17 17 17 17 17 17 17 17 17 17 17 16 16 16 16 16 15 15 15
13 14 13 15 16 16 16 16 17 17 17 17 17 17 17 16 16 17 17 17 17 17 16 16 16 16 16 16 16 16 16 16 16 17 16 16 16 16 15 15 15 15 14 14
15 15 15 15 16 16 16 16 16 16 16 16 16 16 16 16 16 16 16 16 16 16 16 16 16 16 16 16 16 16 16 16 16 16 16 16 16 15 15 15 15 14 14 14
15 15 15 15 15 15 16 16 16 16 15 15 16 16 16 16 15 15 15 15 15 15 15 15 15 15 16 15 15 15 15 15 15 15 15 15 15 15 15 14 14 14 13 13
15 15 14 14 15 15 15 15 15 15 15 15 15 15 15 15 15 15 15 15 15 15 15 15 15 15 15 15 15 15 15 15 15 15 15 15 15 14 14 14 14 13 13 13
14 14 14 14 14 14 14 14 14 14 14 14 14 14 14 14 14 14 14 14 15 15 15 15 15 15 15 15 14 15 15 15 14 14 14 14 14 14 13 13 13 13 13 12
13 13 13 13 13 13 14 14 14 14 14 14 14 14 13 13 13 14 14 14 14 14 14 14 14 14 14 14 14 14 14 14 14 14 14 14 13 13 13 13 13 12 12 12
14 13 13 13 13 13 13 13 13 13 13 13 13 13 13 13 13 13 13 13 13 14 14 14 14 14 14 14 14 14 14 14 13 13 13 13 13 13 12 12 12 12 12 12
13 13 13 13 13 13 13 12 12 13 13 13 13 13 13 12 12 13 13 13 13 13 13 13 13 13 13 13 13 13 13 13 13 13 13 12 12 12 12 12 12 12 12 11
13 13 13 13 13 13 12 12 12 12 12 12 12 12 12 12 12 12 12 12 13 13 13 13 13 13 13 13 12 12 13 13 13 13 12 12 12 12 12 12 12 11 11 11
12 12 13 12 12 12 12 12 12 12 12 12 12 12 12 12 12 12 12 12 12 12 12 12 12 12 12 12 12 12 12 12 12 12 12 12 12 12 12 11 11 11 11 11
12 12 12 12 12 12 12 12 12 12 11 11 11 12 12 12 12 12 12 12 12 12 12 12 12 12 12 12 12 12 12 12 12 12 12 12 11 11 11 11 11 11 11 11
12 12 12 12 12 12 12 12 12 12 11 11 11 11 11 11 11 11 11 12 12 12 12 12 12 12 12 12 12 12 12 12 12 11 11 11 11 11 11 11 11 11 11 10
12 12 12 11 11 11 11 11 11 11 11 11 11 11 11 11 11 11 11 11 11 11 11 12 12 12 12 11 12 11 11 11 11 11 11 11 11 11 11 10 10 10 10 10
11 11 11 11 11 11 11 11 11 11 11 11 11 11 11 11 11 11 11 11 11 11 11 11 11 11 11 11 11 11 11 11 11 11 11 10 10 10 10 10 10 10 10 10
11 11 11 11 11 11 11 11 10 10 10 10 10 10 10 10 10 10 10 11 11 11 11 11 11 11 11 11 11 11 11 11 11 11 10 10 10 10 10 10 10 10 10 10
11 11 11 11 11 11 10 10 10 10 10 10 10 10 10 10 10 10 10 10 10 10 10 11 11 11 11 11 11 11 11 10 10 10 10 10 10 10 10 9 9 9 9 9
Wind_Speed
2 3 4 3 3 6 5 7 8 8 6 6 5 3 1 1 3 3 3 3 4 4 4 3 3 3 4 5 5 6 7 7 7 6 6 6 5 4 4 4 3 3 3 2
1 1 2 2 1 4 3 3 4 3 3 4 1 2 3 3 3 3 2 2 3 3 3 3 4 4 4 4 5 5 6 7 6 6 6 6 6 5 4 4 3 3 3 3
2 1 3 1 2 2 2 1 5 6 5 2 2 2 2 2 3 2 1 1 2 3 4 4 5 5 5 5 4 5 6 6 7 7 7 7 7 6 5 5 4 4 4 4
3 3 3 5 2 3 4 0 1 2 2 4 4 3 2 2 3 1 1 0 0 1 2 2 3 3 3 3 4 5 5 5 6 7 7 7 6 6 6 5 5 4 5 4
4 4 1 3 1 1 3 1 1 2 2 2 2 3 3 1 1 1 1 1 1 1 2 2 2 2 3 3 4 4 4 5 5 6 6 6 7 7 6 5 5 4 4 4
4 5 6 6 3 1 4 1 2 2 3 2 3 2 2 2 1 2 2 1 1 1 2 2 2 3 3 3 3 4 4 4 4 5 6 7 7 6 4 4 5 4 4 4
4 3 5 4 4 1 4 5 2 1 2 3 2 3 2 1 1 1 1 2 2 2 2 1 2 3 3 2 3 4 3 3 3 4 5 6 5 5 4 4 4 4 4 4
4 3 5 3 1 3 4 1 1 1 1 2 2 2 1 1 1 1 2 2 2 2 2 1 2 3 2 2 3 2 3 3 3 3 4 4 4 4 4 4 4 4 4 4
5 4 3 2 1 1 2 2 1 1 1 3 3 2 1 0 0 1 0 1 1 1 1 1 0 2 2 3 1 2 2 3 2 3 3 3 4 5 4 4 4 4 4 4
1 2 3 3 2 2 1 1 1 2 2 2 2 1 1 0 1 1 1 1 0 1 1 2 2 1 2 2 1 3 3 3 3 3 3 3 3 4 4 5 5 5 4 4
0 2 3 3 2 1 2 2 2 1 1 2 2 0 1 1 1 1 1 1 1 0 1 2 2 2 3 2 3 3 3 3 3 3 4 4 3 3 4 5 6 6 5 5
5 5 3 4 3 1 1 1 1 1 2 2 1 0 1 2 2 2 2 2 1 1 2 3 3 3 3 3 4 4 3 3 3 3 3 3 3 2 1 2 3 4 5 5
3 2 2 2 3 2 1 2 2 2 1 1 1 0 1 2 2 3 3 3 3 3 3 3 3 4 4 3 4 5 5 4 3 3 4 4 4 4 2 0 1 2 3 5
1 2 2 2 2 3 2 2 2 2 2 2 2 2 1 2 3 3 4 5 4 4 3 3 4 5 4 3 3 4 4 4 4 4 5 5 5 5 4 4 3 1 1 3
2 2 1 1 2 3 2 3 3 3 3 3 3 2 2 3 4 5 5 4 3 3 4 4 4 5 4 2 3 4 4 4 4 4 4 4 4 4 4 4 4 2 1 1
2 3 3 2 2 3 3 3 2 3 3 3 3 3 4 3 4 4 4 4 3 5 5 5 5 5 3 2 3 3 3 4 3 3 3 3 3 4 4 3 3 3 3 3
3 2 1 1 2 3 3 3 3 3 3 3 3 3 3 2 3 4 5 5 5 6 5 5 5 4 2 1 2 2 2 2 3 3 3 3 3 4 4 3 3 4 4 4
2 2 3 3 2 2 3 4 4 3 4 4 4 3 3 3 4 5 5 5 5 5 4 4 3 2 2 1 1 1 2 2 3 3 2 2 3 3 3 3 4 4 3 3
1 1 2 2 2 2 3 5 5 4 4 3 3 3 3 4 4 4 4 4 4 5 5 4 3 1 1 2 1 1 2 2 2 2 2 3 2 2 3 3 3 3 3 2
1 1 2 3 3 2 3 4 4 4 4 3 3 3 4 4 4 3 3 3 4 5 4 3 2 1 2 2 1 1 2 2 2 2 2 2 3 3 3 3 3 3 3 3
2 2 3 4 4 4 4 4 3 4 4 3 2 3 4 4 4 3 2 3 5 4 3 3 2 2 2 1 1 1 2 2 2 2 3 3 3 3 3 3 3 3 3 3
2 2 3 4 4 5 5 3 3 3 3 4 4 3 3 4 4 4 3 3 4 4 2 1 1 1 1 1 1 2 2 2 2 2 2 2 3 3 3 3 3 3 3 3
2 2 3 4 4 4 4 3 3 3 3 3 3 3 3 3 3 3 4 4 3 3 2 1 1 1 1 1 1 2 2 2 2 2 2 2 3 3 2 3 3 3 3 3
2 2 3 3 2 3 3 4 3 3 3 3 3 3 2 2 3 3 3 4 3 3 2 2 1 1 1 1 1 1 1 1 1 2 2 2 2 2 2 2 2 2 3 3
2 3 3 3 3 2 3 3 3 3 3 3 4 3 3 2 2 3 3 3 3 3 2 3 3 1 0 0 0 1 1 1 1 1 1 2 2 2 2 2 3 3 3 3
2 2 3 3 2 2 2 2 2 2 2 3 4 4 4 3 3 2 2 2 3 2 2 2 2 2 1 1 0 0 0 1 1 1 1 1 1 1 2 2 3 3 3 3
3 3 3 3 3 2 1 1 1 2 2 2 3 4 4 3 3 3 3 2 3 3 3 3 2 2 1 1 1 1 1 1 1 1 0 0 0 1 1 1 2 2 2 3
Wind_Direction
188 176 157 172 166 163 166 173 177 212 212 252 250 239 221 134 128 122 134 153 168 176 182 181 185 189 196 198 192 184 181 188 199 197 191 181 180 182 181 184 188 182 177 190
80 102 142 122 103 164 174 166 183 172 241 270 251 101 87 95 103 107 134 182 176 171 172 183 196 198 195 203 200 184 187 198 196 191 190 185 188 185 180 184 188 185 195 199
186 296 75 336 291 174 156 207 171 191 218 167 116 126 146 131 114 128 160 170 173 188 191 198 206 198 197 201 184 182 196 195 191 190 193 194 192 183 190 197 196 203 212 202
121 96 182 250 284 144 131 75 159 177 183 166 161 160 137 137 150 155 134 152 201 200 206 215 210 203 187 168 167 178 192 198 195 192 194 191 186 191 197 197 197 209 216 212
119 137 223 284 275 163 139 344 3 153 144 138 113 67 22 357 112 167 183 197 204 212 199 173 179 169 145 160 162 174 199 205 203 197 195 192 194 200 201 196 203 207 206 205
123 139 204 231 279 289 118 295 290 160 145 124 92 84 283 321 4 12 9 27 56 90 102 109 131 135 132 153 167 196 211 212 208 199 199 203 204 201 198 194 202 195 204 207
136 164 242 263 295 73 155 230 269 168 155 126 147 202 232 325 1 4 2 11 37 65 83 102 124 126 138 156 204 219 206 194 192 195 203 207 203 197 188 182 185 198 211 224
137 154 235 305 71 151 206 225 125 104 121 122 140 135 123 58 35 26 24 24 32 52 41 49 127 141 163 211 226 193 180 186 194 202 205 204 191 191 183 180 188 209 219 235
175 198 263 301 187 204 165 129 98 127 145 132 126 139 181 203 108 63 47 12 23 69 18 343 192 154 204 243 205 170 179 199 205 208 202 191 191 190 184 188 198 214 217 228
79 306 309 333 12 25 82 123 124 132 135 133 144 197 223 276 340 350 357 333 14 71 29 317 298 232 231 235 192 189 200 218 220 199 195 197 206 193 190 197 206 213 219 225
93 272 336 346 358 51 68 69 65 56 93 115 119 272 288 310 309 310 314 319 331 233 249 275 288 282 254 223 194 202 211 211 207 198 194 200 207 203 203 212 210 208 218 208
211 223 198 257 274 244 91 337 315 4 5 22 100 39 345 308 301 299 299 295 288 281 273 273 273 276 265 228 202 199 212 216 215 212 205 200 199 209 214 207 198 200 202 197
212 216 205 262 296 307 298 306 314 316 297 310 325 226 249 290 300 306 303 294 277 271 272 270 269 272 265 229 203 203 214 219 218 211 203 200 196 195 201 29 92 157 190 191
144 94 49 326 306 329 334 329 336 341 333 303 286 289 279 285 288 292 285 281 281 279 277 271 271 275 270 227 203 211 218 221 221 215 204 200 198 199 197 192 197 235 248 201
40 78 164 292 344 354 355 5 3 340 328 325 316 294 272 270 281 283 281 284 289 284 278 274 272 275 278 238 221 224 222 220 217 212 201 193 191 193 197 196 197 200 187 209
51 61 71 53 357 341 358 5 344 316 314 320 330 316 294 277 273 281 287 282 273 271 268 263 270 275 274 237 219 221 220 217 205 195 191 188 186 187 193 196 203 210 213 209
91 42 20 349 332 332 334 317 293 289 304 312 310 308 316 319 308 302 300 292 274 269 268 263 268 279 282 235 203 203 197 194 182 184 191 191 186 191 194 193 207 225 234 222
176 199 223 229 245 282 304 301 298 301 294 291 301 310 307 301 292 288 291 296 296 297 291 282 284 296 301 271 215 190 176 182 191 197 194 194 190 192 196 203 211 224 240 226
166 221 283 278 254 253 278 288 291 293 294 298 298 292 287 285 277 276 288 297 297 297 295 290 290 298 293 279 232 181 175 178 186 189 180 180 188 198 203 212 218 226 230 221
26 341 323 317 313 287 284 289 293 296 295 296 293 303 306 297 290 293 301 295 279 269 275 283 276 257 259 265 238 191 181 180 184 189 184 190 201 208 217 221 223 228 231 228
350 336 331 325 316 308 302 295 292 297 304 309 291 288 295 300 302 301 303 299 297 290 276 257 248 246 243 230 203 190 186 186 191 196 197 202 207 207 213 220 221 226 232 238
320 327 324 320 317 313 315 312 299 299 314 321 322 327 327 320 320 323 314 288 297 309 311 283 256 247 244 226 201 202 205 205 201 199 201 200 204 208 212 218 223 231 235 239
313 308 315 320 316 314 326 331 321 312 309 307 306 313 315 308 311 317 315 314 316 319 320 296 242 236 257 236 216 215 211 207 205 201 201 204 206 206 212 225 236 241 248 252
331 331 327 326 350 3 346 328 325 319 308 308 308 307 303 312 321 313 297 308 326 337 341 320 302 272 244 201 203 199 194 191 199 202 204 208 205 203 208 224 244 255 259 261
348 349 354 1 358 334 312 319 339 342 346 347 342 338 324 295 289 309 324 339 347 359 356 342 329 323 9 94 153 189 190 184 192 192 198 205 211 214 220 230 243 253 259 262
346 340 333 328 310 306 318 344 354 342 350 351 344 343 341 338 333 336 348 359 9 3 357 350 354 0 25 48 60 78 120 118 126 163 194 208 226 241 252 252 259 263 265 266
345 344 341 340 331 318 316 324 326 323 325 336 331 331 335 339 342 348 359 7 14 13 7 4 9 18 25 37 43 40 47 69 82 86 88 297 287 276 269 275 288 292 289 284
Height
1491 1488 1488 1490 1491 1495 1498 1503 1510 1506 1504 1496 1492 1492 1491 1491 1493 1495 1496 1498 1501 1503 1506 1508 1509 1511 1514 1515 1518 1520 1522 1523 1524 1526 1529 1530 1531 1532 1533 1534 1535 1535 1536 1536
1492 1489 1488 1490 1490 1491 1494 1496 1498 1498 1500 1491 1490 1490 1491 1492 1492 1493 1495 1497 1499 1501 1504 1506 1508 1509 1511 1513 1515 1517 1518 1520 1522 1524 1525 1526 1527 1528 1530 1531 1532 1532 1533 1533
1501 1493 1490 1499 1493 1492 1494 1493 1494 1498 1495 1491 1491 1491 1491 1491 1492 1493 1494 1496 1498 1499 1501 1503 1505 1507 1508 1510 1511 1513 1515 1516 1518 1520 1521 1523 1524 1525 1526 1528 1528 1529 1530 1530
1505 1499 1509 1500 1488 1488 1491 1491 1490 1490 1489 1489 1489 1490 1491 1492 1492 1493 1494 1495 1496 1498 1499 1501 1503 1504 1506 1507 1508 1510 1511 1512 1514 1516 1517 1519 1520 1521 1523 1524 1525 1526 1526 1526
1509 1510 1505 1495 1489 1489 1492 1494 1490 1489 1489 1489 1489 1490 1492 1492 1492 1493 1493 1493 1495 1496 1497 1498 1500 1502 1503 1504 1505 1507 1509 1510 1511 1512 1513 1515 1516 1517 1519 1520 1521 1522 1522 1522
1506 1508 1511 1497 1487 1485 1489 1496 1489 1488 1488 1489 1489 1494 1494 1492 1492 1492 1493 1493 1494 1495 1495 1496 1497 1499 1500 1501 1502 1504 1505 1506 1508 1509 1510 1512 1513 1514 1515 1516 1517 1518 1518 1518
1504 1504 1500 1489 1485 1485 1499 1496 1489 1488 1488 1488 1490 1492 1492 1491 1491 1492 1492 1492 1492 1492 1493 1494 1495 1496 1498 1498 1499 1501 1502 1503 1504 1505 1507 1508 1510 1511 1511 1512 1513 1514 1514 1514
1505 1505 1503 1487 1485 1490 1491 1487 1487 1488 1489 1489 1489 1490 1490 1490 1490 1490 1490 1490 1491 1490 1490 1492 1493 1494 1494 1495 1496 1498 1499 1499 1500 1501 1503 1505 1506 1506 1507 1508 1508 1509 1509 1509
1498 1498 1491 1487 1487 1487 1487 1487 1487 1487 1488 1488 1489 1489 1489 1490 1489 1489 1489 1489 1489 1489 1488 1489 1490 1490 1491 1492 1493 1495 1495 1496 1496 1498 1499 1501 1502 1501 1502 1503 1504 1504 1504 1504
1493 1491 1489 1488 1487 1486 1487 1487 1487 1487 1488 1488 1488 1488 1488 1488 1487 1487 1487 1487 1488 1487 1487 1487 1487 1487 1489 1489 1490 1492 1492 1492 1493 1494 1495 1496 1498 1497 1498 1499 1499 1499 1499 1499
1493 1491 1489 1488 1487 1487 1487 1487 1487 1487 1487 1487 1487 1487 1487 1487 1486 1486 1486 1486 1486 1485 1484 1484 1485 1484 1486 1486 1488 1489 1489 1489 1489 1490 1491 1492 1493 1493 1493 1494 1495 1495 1495 1495
1492 1488 1488 1488 1487 1487 1487 1487 1487 1487 1486 1486 1486 1485 1485 1485 1485 1485 1484 1484 1483 1483 1482 1482 1482 1482 1483 1483 1484 1484 1484 1485 1486 1486 1487 1487 1488 1489 1489 1490 1491 1491 1492 1492
1486 1486 1487 1487 1487 1487 1486 1486 1485 1485 1485 1484 1484 1484 1483 1483 1483 1483 1483 1483 1481 1480 1479 1479 1479 1479 1480 1480 1480 1480 1480 1481 1481 1482 1483 1483 1483 1484 1485 1486 1487 1488 1489 1489
1485 1486 1486 1487 1487 1486 1486 1485 1484 1484 1483 1483 1482 1481 1481 1481 1481 1481 1480 1480 1479 1478 1477 1477 1476 1476 1476 1475 1476 1476 1477 1477 1477 1478 1478 1479 1479 1480 1481 1482 1482 1483 1485 1486
1485 1486 1486 1486 1486 1485 1485 1484 1483 1482 1482 1480 1480 1479 1478 1477 1477 1477 1477 1477 1476 1475 1474 1474 1473 1472 1472 1471 1471 1472 1472 1473 1473 1473 1474 1474 1475 1477 1477 1478 1479 1480 1481 1482
1485 1485 1486 1486 1485 1484 1484 1483 1482 1481 1480 1479 1477 1476 1475 1474 1474 1473 1473 1473 1473 1471 1470 1470 1469 1469 1468 1467 1467 1468 1468 1469 1469 1470 1470 1471 1472 1473 1474 1475 1476 1476 1477 1479
1484 1484 1485 1485 1484 1483 1483 1482 1481 1479 1478 1477 1475 1474 1473 1472 1470 1470 1470 1469 1468 1467 1467 1466 1465 1465 1464 1463 1463 1464 1464 1465 1466 1467 1467 1468 1468 1470 1471 1472 1473 1473 1474 1476
1484 1484 1485 1484 1483 1482 1482 1481 1479 1477 1476 1475 1473 1472 1470 1469 1467 1467 1466 1465 1464 1463 1462 1462 1461 1461 1460 1460 1460 1460 1461 1462 1463 1464 1464 1465 1466 1467 1468 1469 1470 1470 1471 1472
1483 1483 1483 1482 1481 1480 1479 1478 1477 1475 1473 1472 1471 1469 1467 1466 1465 1464 1463 1462 1460 1459 1458 1458 1458 1458 1457 1457 1458 1458 1459 1459 1461 1461 1462 1463 1463 1464 1465 1466 1467 1467 1468 1468
1482 1482 1481 1480 1478 1478 1476 1475 1474 1472 1471 1469 1468 1466 1465 1464 1463 1461 1460 1458 1457 1456 1455 1454 1454 1455 1455 1455 1456 1456 1456 1457 1458 1458 1459 1460 1461 1462 1463 1464 1464 1464 1465 1465
1480 1480 1479 1478 1477 1475 1474 1473 1472 1470 1468 1467 1465 1464 1462 1462 1461 1459 1456 1455 1454 1453 1452 1451 1452 1452 1453 1453 1453 1454 1454 1454 1455 1456 1457 1458 1459 1459 1460 1461 1461 1462 1462 1462
1479 1478 1477 1476 1475 1473 1472 1471 1470 1468 1466 1465 1463 1462 1461 1460 1459 1456 1454 1453 1452 1451 1450 1450 1450 1451 1451 1451 1452 1452 1452 1453 1454 1454 1455 1455 1456 1457 1457 1458 1458 1459 1459 1459
1478 1477 1476 1475 1473 1472 1470 1469 1468 1467 1465 1464 1463 1461 1460 1459 1458 1455 1453 1453 1451 1451 1450 1450 1450 1450 1450 1450 1450 1450 1451 1451 1452 1452 1453 1454 1454 1454 1454 1455 1455 1456 1456 1455
1477 1476 1475 1474 1472 1470 1469 1468 1467 1466 1465 1463 1462 1461 1460 1459 1457 1455 1454 1452 1451 1450 1450 1449 1449 1449 1449 1449 1449 1449 1449 1450 1450 1450 1451 1451 1452 1452 1452 1452 1452 1452 1452 1452
1476 1475 1474 1472 1471 1469 1468 1467 1466 1465 1464 1463 1461 1460 1459 1458 1456 1455 1453 1452 1451 1450 1450 1449 1449 1449 1449 1448 1448 1448 1448 1448 1448 1449 1449 1449 1449 1449 1449 1449 1449 1449 1449 1448
1476 1475 1474 1472 1471 1469 1468 1467 1465 1464 1463 1462 1461 1460 1458 1457 1456 1455 1454 1453 1452 1451 1450 1449 1449 1449 1448 1448 1448 1447 1447 1447 1447 1447 1447 1447 1447 1446 1446 1446 1446 1446 1445 1445
1476 1474 1473 1472 1470 1469 1468 1466 1465 1464 1463 1462 1461 1459 1458 1456 1455 1455 1454 1453 1452 1451 1450 1450 1449 1448 1448 1447 1447 1447 1446 1446 1446 1446 1446 1445 1445 1445 1444 1444 1443 1443 1442 1441